Location: Bennemühlen
(52.5740°N, 9.7135°E)
Time: 01:05:48
(UTC+00:00)

A-11 Canister half - Pass Details

Date: 20 February 2026
Orbit: 1512 x 1687 km, 47.2° (Epoch: 8 March)

Event Time Altitude Azimuth Distance (km) Brightness Sun altitude
Rises 02:17:11 0° 286° (WNW) 4,884 - -37.2°
Reaches altitude 10° 02:20:52 10° 276° (W) 3,870 - -36.7°
Maximum altitude 02:28:50 29° 222° (SW) 2,596 - -35.7°
Drops below altitude 10° 02:36:34 10° 167° (SSE) 3,744 - -34.7°
Exits shadow 02:37:35 - 163° (SSE) 4,006 11.0 -34.6°
Sets 02:40:05 0° 156° (SSE) 4,701 11.5 -34.3°
